TimeEDT,TemperatureF,Dew PointF,Humidity,Sea Level PressureIn,VisibilityMPH,Wind Direction,Wind SpeedMPH,Gust SpeedMPH,PrecipitationIn,Events,Conditions,WindDirDegrees,DateUTC
12:53 AM,73.0,71.1,93,30.16,8.0,Calm,Calm,-,N/A,,Clear,0,2013-07-17 04:53:00
1:53 AM,72.0,69.1,91,30.16,10.0,Calm,Calm,-,N/A,,Clear,0,2013-07-17 05:53:00
2:53 AM,70.0,66.9,90,30.16,10.0,Calm,Calm,-,N/A,,Clear,0,2013-07-17 06:53:00
3:53 AM,70.0,66.9,90,30.15,9.0,Calm,Calm,-,N/A,,Clear,0,2013-07-17 07:53:00
4:53 AM,68.0,66.9,96,30.16,8.0,Calm,Calm,-,N/A,,Clear,0,2013-07-17 08:53:00
5:53 AM,68.0,66.9,96,30.18,6.0,Calm,Calm,-,N/A,,Clear,0,2013-07-17 09:53:00
6:53 AM,71.1,68.0,90,30.18,10.0,Calm,Calm,-,N/A,,Clear,0,2013-07-17 10:53:00
7:53 AM,75.0,68.0,79,30.19,10.0,Calm,Calm,-,N/A,,Clear,0,2013-07-17 11:53:00
8:53 AM,81.0,69.1,67,30.19,10.0,Calm,Calm,-,N/A,,Clear,0,2013-07-17 12:53:00
9:53 AM,84.9,69.1,59,30.18,10.0,Calm,Calm,-,N/A,,Clear,0,2013-07-17 13:53:00
10:53 AM,87.1,71.1,59,30.17,10.0,Variable,4.6,-,N/A,,Clear,0,2013-07-17 14:53:00
11:53 AM,90.0,70.0,52,30.15,10.0,Variable,5.8,-,N/A,,Clear,0,2013-07-17 15:53:00
12:53 PM,93.9,64.9,38,30.13,10.0,NNE,3.5,-,N/A,,Scattered Clouds,20,2013-07-17 16:53:00
1:53 PM,93.9,68.0,43,30.12,10.0,WSW,5.8,-,N/A,,Partly Cloudy,250,2013-07-17 17:53:00
2:53 PM,93.9,66.9,41,30.10,10.0,SW,5.8,-,N/A,,Scattered Clouds,220,2013-07-17 18:53:00
3:53 PM,95.0,64.9,37,30.07,10.0,West,9.2,-,N/A,,Scattered Clouds,280,2013-07-17 19:53:00
4:53 PM,95.0,64.9,37,30.06,10.0,WSW,9.2,-,N/A,,Clear,250,2013-07-17 20:53:00
5:53 PM,93.9,66.9,41,30.04,10.0,WNW,6.9,-,N/A,,Clear,290,2013-07-17 21:53:00
6:53 PM,91.9,68.0,45,30.03,10.0,SW,8.1,-,N/A,,Clear,230,2013-07-17 22:53:00
7:53 PM,88.0,70.0,55,30.04,10.0,WSW,5.8,-,N/A,,Clear,240,2013-07-17 23:53:00
8:53 PM,82.0,71.1,69,30.04,10.0,SSW,3.5,-,N/A,,Clear,200,2013-07-18 00:53:00
9:53 PM,79.0,71.1,77,30.04,10.0,SSE,3.5,-,N/A,,Clear,160,2013-07-18 01:53:00
10:53 PM,80.1,71.1,74,30.02,10.0,South,6.9,-,N/A,,Partly Cloudy,180,2013-07-18 02:53:00
11:53 PM,79.0,71.1,77,30.03,10.0,South,4.6,-,N/A,,Scattered Clouds,180,2013-07-18 03:53:00